Tracking 35237 objects as of 6-Sep-2026
HD Live streaming from Space Station
objects crossing your sky now

DELTA 2 R/B


DELTA 2 R/B is no longer on orbit


NORAD ID: 20639
Int'l Code: 1990-049B
Launch date: June 1, 1990
Source: United States (US)
Launch site: AIR FORCE EASTERN TEST RANGE (AFETR)
Decay date: 1992-01-15

Note: This is a ROCKET BODY
Your satellite tracking list
Your tracking list is empty




NASA's NSSDC Master Catalog

Two Line Element Set (TLE):
1 20639U 90049  B 92014.83461238  .18286455 +61345-4 +23569-3 0  9993
2 20639 052.4932 156.7084 0004263 286.4705 073.7476 16.49266082091250
Source of the keplerian elements: AFSPC